星链-34730 (STARLINK-34730)

导读 | 豆包AI

STARLINK-34730是美国太空探索技术公司SpaceX于2025年7月26日发射的星链低轨通信卫星,隶属于星链(Starlink)卫星互联网星座项目。星链旨在构建全球覆盖的天基互联网系统,为网络盲区及偏远区域提供高速宽带服务,同时具备较强的军事通信应用潜力。该卫星继承星链成熟技术,搭载相控阵天线与激光通信模块,可通过星间链路实现高效数据传输,是星链全球组网过程中新增的一颗运营卫星,进一步扩大了全球最大商用卫星星座的规模。

Basic Information
目录编号:
64938
目录名称:
STARLINK-34730
国际标识:
2025-158G
轨道中心:
EARTH
卫星名称:
星链-34730
卫星全名:
星链-34730 (STARLINK-34730)
卫星状态:
在轨 (已飞行231 天)
发射日期:
2025-07-26 UTC
国别 :
美国 (US)
星等 :
--
Orbit Information
数据来源 国际轨道数据 AOE轨道数据
星历时间 2026-03-14T05:27:14+0800
18小时前
查看轨道信息
2026-03-13T08:00:00+0800
1天前
查看轨道信息
半长轴 6927.646km 6927.654km
偏心率 0.0002447 0.0001845
轨道倾角 97.604° 97.604°
近地点辐角 89.895° 79.792°
升交点赤经 298.302° 297.423°
平近点角 270.255° 118.097°
近地点 547.813km 548.238km
远地点 551.205km 550.796km
周期 95.640分钟 95.640分钟
每日圈数 15.056509 15.056484
Detailed Information
固有亮度:
5
最大亮度:
2.5
卫星平台:
Starlink V1.0
覆盖范围:
全球
运营商:
太空探索技术公司
运营商所在国:
美国
制造商(研发单位):
太空探索技术公司
制造商所在国:
美国
使用方式:
暂无
Satellite Introduction
Starlink 计划是 SpaceX 推出的全球卫星互联网项目,通过发射低轨道卫星,为全球尤其是偏远地区提供高速、低延迟的互联网服务。自 2019 年起,Starlink 已部署数千颗卫星,旨在缩小全球数字鸿沟,推动互联网普及。该项目还为军事、航空等行业提供通信支持,带来广泛经济效益。
2D Orbit Map
3D Orbit Map
Orbit Altitude Analysis Chart
Orbit Inclination Analysis Chart
Orbit Comprehensive Analysis Chart
View Comprehensive Chart